User: anonymous   Login
Location: Goheenville
(40.9070°N, 79.3720°W)
Time: 14:11:45
(UTC-04:00)
Language:

Meteor 2-10 Rocket - Orbit

View from above orbital plane
View from above orbital plane
View from above satellite
View from above satellite

Ground track
Ground track

The orbit data is extracted from the following two-line orbital elements,

1 14453U 83109B   15210.12634836  .00000068  00000-0  22761-4 0  9996
2 14453 081.1659 079.4701 0103924 256.9754 101.9806 14.24608665649415
Epoch (UTC): 29 July 2015 03:01:56
Eccentricity: 0.0103924
inclination: 81.1659°
perigee height: 735 km
apogee height: 884 km
right ascension of ascending node: 79.4701°
argument of perigee: 256.9754°
revolutions per day: 14.24608665
mean anomaly at epoch: 101.9806°
orbit number at epoch: 64941

The dashed part of the orbit path shows where the satellite is in the earth's shadow,  

DLR